White Mountain, AK

10:20 AM AKDT on April 28, 2017 (GMT -0800)
White Mountain

Weather History for PAWM - November, 2012

Change the Weather History Date:

Monday, November 19, 2012

  Actual Average (PAOM) Record (PAOM)
Temperature  
Mean Temperature 4 °F -  
Max Temperature 7 °F 22 °F 41 °F (2001)
Min Temperature 0 °F 8 °F -22 °F (1969)
Degree Days  
Heating Degree Days 62    
Moisture  
Dew Point -6 °F    
Average Humidity 64    
Maximum Humidity 75    
Minimum Humidity 55    
Precipitation  
Precipitation 0.00 in - - ()
Sea Level Pressure  
Sea Level Pressure 30.26 in    
Wind  
Wind Speed 11 mph ()    
Max Wind Speed 15 mph    
Max Gust Speed -    
Visibility 9.3 miles    
Events      
Averages and records for this station are not official NWS values.
T = Trace of Precipitation, MM = Missing Value Source: Averaged Metar Reports

Daily Weather History Graph

Daily Weather History Graph

Search for Another Location

Airport or City:

Trip Planner

Search our weather history database for the weather conditions in past years. The results will help you decide how hot, cold, wet, or windy it might be!

Date:

Astronomy

Nov. 19, 2012 Rise Set
Actual Time 10:43 AM AKST 4:34 PM AKST
Civil Twilight 9:38 AM AKST 5:39 PM AKST
Nautical Twilight 8:34 AM AKST 6:43 PM AKST
Astronomical Twilight 7:36 AM AKST 7:41 PM AKST
Moon 2:47 PM AKST (11/19) No Moon Set
Length of Visible Light 8h 01m
Length of Day
5h 50m
Waxing Crescent, 42% of the Moon is Illuminated
Nov 19
Waxing Crescent
Nov 20
First Quarter
Nov 28
Full
Dec 6
Last Quarter
Dec 12
New

Hourly Weather History & Observations

Time (AKST) Temp. Windchill Dew Point Humidity Pressure Visibility Wind Dir Wind Speed Gust Speed Precip Events Conditions
12:58 AM 6.1 °F -11.6 °F -4.0 °F 63% 30.19 in 10.0 mi North 15.0 mph - N/A   Clear
1:58 AM 7.0 °F -9.1 °F -4.0 °F 61% 30.20 in 10.0 mi North 12.7 mph - N/A   Clear
3:58 AM 3.9 °F -11.3 °F -4.0 °F 70% 30.22 in 10.0 mi North 10.4 mph - N/A   Clear
4:58 AM 5.0 °F -11.6 °F -4.0 °F 66% 30.24 in 10.0 mi North 12.7 mph - N/A   Clear
6:58 AM 1.0 °F -15.8 °F -6.0 °F 72% 30.24 in 10.0 mi North 11.5 mph - N/A   Clear
7:58 AM 1.0 °F -16.6 °F -5.1 °F 75% 30.25 in 10.0 mi NNW 12.7 mph - N/A   Clear
8:58 AM 1.9 °F -14.7 °F -5.1 °F 72% 30.27 in 10.0 mi NNW 11.5 mph - N/A   Clear
9:58 AM 1.9 °F -14.7 °F -6.0 °F 69% 30.27 in 10.0 mi North 11.5 mph - N/A   Clear
10:58 AM 3.0 °F -11.5 °F -6.0 °F 66% 30.28 in 9.0 mi North 9.2 mph - N/A   Clear
11:58 AM 6.1 °F -9.5 °F -6.0 °F 58% 30.28 in 8.0 mi North 11.5 mph - N/A   Clear
12:58 PM 5.0 °F -11.6 °F -6.0 °F 61% 30.28 in 9.0 mi NNW 12.7 mph - N/A   Clear
1:58 PM 6.1 °F -10.9 °F -5.1 °F 60% 30.27 in 8.0 mi NNW 13.8 mph - N/A   Clear
2:58 PM 7.0 °F -9.8 °F -6.0 °F 55% 30.27 in 8.0 mi North 13.8 mph - N/A   Clear
3:58 PM 6.1 °F -6.8 °F -6.0 °F 58% 30.28 in 7.0 mi NNW 8.1 mph - N/A   Clear
4:58 PM 6.1 °F -10.9 °F -6.0 °F 58% 30.27 in 8.0 mi North 13.8 mph - N/A   Clear
5:58 PM 3.0 °F -14.8 °F -7.1 °F 63% 30.27 in 10.0 mi North 13.8 mph - N/A   Clear
6:58 PM -0.0 °F -16.3 °F -8.0 °F 69% 30.29 in 9.0 mi North 10.4 mph - N/A   Clear
7:58 PM 1.9 °F -16.2 °F -7.1 °F 66% 30.29 in 10.0 mi North 13.8 mph - N/A   Clear
8:58 PM 1.9 °F -16.9 °F -8.0 °F 63% 30.30 in 10.0 mi North 15.0 mph - N/A   Clear
9:58 PM 1.9 °F -13.8 °F -8.0 °F 63% 30.30 in 10.0 mi North 10.4 mph - N/A   Clear
10:58 PM 1.0 °F -18.0 °F -8.0 °F 66% 30.28 in 9.0 mi North 15.0 mph - N/A   Clear
11:58 PM 1.9 °F -16.9 °F -8.0 °F 63% 30.28 in 10.0 mi North 15.0 mph - N/A   Clear